CW7929 Weather Reports


time (UTC)temp
C
wind
direction
speed
KPH
gust
KPH
rain 1hr
cm
rain 24hr
cm
rain mn
cm
humidity
%
barometer
mb
20260507094928 14 360 0.0 0.0 0.00 0.00 0.00 41 1017.4
20260507084939 15 360 0.0 0.0 0.00 0.00 0.00 41 1017.1
20260507083428 15 360 0.0 0.0 0.00 0.00 0.00 41 1017.0
20260507081933 15 360 0.0 0.0 0.00 0.00 0.00 41 1017.1
20260507074933 16 229 0.0 0.0 0.00 0.00 0.00 43 1017.2
20260507073440 16 360 0.0 0.0 0.00 0.00 0.00 43 1017.3
20260507071928 16 163 0.0 0.0 0.00 0.00 0.00 43 1017.2
20260507070432 16 360 0.0 0.0 0.00 0.00 0.00 44 1017.2
20260507063431 16 360 0.0 0.0 0.00 0.00 0.00 45 1017.4
20260507061935 16 360 0.0 0.0 0.00 0.00 0.00 46 1017.4
20260507060424 16 163 0.0 0.0 0.00 0.00 0.00 46 1017.3
20260507054933 16 159 0.0 0.0 0.00 0.00 0.00 45 1017.3
20260507053422 16 159 0.0 0.0 0.00 0.00 0.00 45 1017.4
20260507051926 16 158 0.0 0.0 0.00 0.00 0.00 46 1017.4
20260507044940 17 360 0.0 0.0 0.00 0.00 0.00 45 1017.4
20260507043425 17 360 0.0 0.0 0.00 0.00 0.00 44 1017.4
20260507041918 18 198 0.0 0.0 0.00 0.00 0.00 43 1017.3
20260507040427 18 225 0.0 0.0 0.00 0.00 0.00 43 1017.2
20260507033422 19 226 0.0 0.0 0.00 0.00 0.00 41 1016.9
20260507031929 20 233 0.0 0.0 0.00 0.00 0.00 41 1016.8
20260507030437 20 360 0.0 0.0 0.00 0.00 0.00 40 1016.6
20260507024922 21 196 0.0 0.0 0.00 0.00 0.00 39 1016.5
20260507023427 21 360 0.0 0.0 0.00 0.00 0.00 38 1016.3
20260507021920 21 360 0.0 0.0 0.00 0.00 0.00 37 1016.2
20260507020427 22 360 0.0 0.0 0.00 0.00 0.00 35 1016.1
20260507014936 23 360 0.0 0.0 0.00 0.00 0.00 33 1016.0
20260507013422 24 360 0.0 0.0 0.00 0.00 0.00 31 1016.0
20260507011931 25 259 0.0 0.0 0.00 0.00 0.00 29 1016.1
20260507010439 25 355 0.0 0.0 0.00 0.00 0.00 25 1016.2
20260507004922 26 322 0.0 0.0 0.00 0.00 0.00 25 1016.1
20260507003431 25 350 0.0 0.0 0.00 0.00 0.00 24 1016.1
20260507001919 25 16 1.6 0.0 0.00 0.00 0.00 24 1016.0
20260507000432 25 360 0.0 0.0 0.00 0.00 0.00 24 1016.0
20260506234937 26 24 0.0 0.0 0.00 0.00 0.00 24 1015.9
20260506231935 26 40 0.0 0.0 0.00 0.00 0.00 27 1015.1
20260506230423 26 360 0.0 0.0 0.00 0.00 0.00 28 1015.4
20260506224933 26 355 0.0 0.0 0.00 0.00 0.00 27 1015.5
20260506223422 25 9 0.0 0.0 0.00 0.00 0.00 28 1015.8
20260506221926 26 360 0.0 0.0 0.00 0.00 0.00 28 1015.9
20260506220437 26 77 0.0 0.0 0.00 0.00 0.00 27 1016.2
20260506214924 25 314 1.6 0.0 0.00 0.00 0.00 29 1016.2
20260506211940 25 350 0.0 0.0 0.00 0.00 0.00 30 1016.6
20260506210425 24 33 0.0 0.0 0.00 0.00 0.00 30 1016.7
20260506204935 25 22 0.0 0.0 0.00 0.00 0.00 30 1016.9
20260506203440 24 30 0.0 0.0 0.00 0.00 0.00 31 1016.9
20260506201931 24 21 0.0 0.0 0.00 0.00 0.00 31 1017.1
20260506194925 24 40 1.6 0.0 0.00 0.00 0.00 30 1017.5
20260506193436 23 14 1.6 0.0 0.00 0.00 0.00 31 1017.5
20260506191920 23 355 0.0 0.0 0.00 0.00 0.00 30 1017.5
20260506190432 23 19 0.0 0.0 0.00 0.00 0.00 31 1017.7
20260506184937 23 38 0.0 0.0 0.00 0.00 0.00 30 1017.8
20260506183430 22 31 0.0 0.0 0.00 0.00 0.00 32 1018.0
20260506180423 21 60 1.6 0.0 0.00 0.00 0.00 34 1018.2
20260506174932 21 60 1.6 0.0 0.00 0.00 0.00 35 1018.2
20260506173423 20 13 0.0 0.0 0.00 0.00 0.00 35 1017.2
20260506170418 20 43 0.0 0.0 0.00 0.00 0.00 35 1017.2
20260506164926 19 360 0.0 0.0 0.00 0.00 0.00 35 1017.0
20260506161922 19 22 0.0 0.0 0.00 0.00 0.00 36 1017.0
20260506160431 19 16 0.0 0.0 0.00 0.00 0.00 36 1016.9
20260506154940 18 342 0.0 0.0 0.00 0.00 0.00 38 1016.8
20260506153425 18 337 0.0 0.0 0.00 0.00 0.00 38 1016.9
20260506151934 17 334 0.0 0.0 0.00 0.00 0.00 40 1016.9
20260506150438 16 140 0.0 0.0 0.00 0.00 0.00 43 1016.9
20260506141939 12 140 0.0 0.0 0.00 0.00 0.00 52 1016.7
20260506140430 12 140 0.0 0.0 0.00 0.00 0.00 52 1016.6
20260506134938 11 140 0.0 0.0 0.00 0.00 0.00 54 1016.4
20260506133441 10 146 0.0 0.0 0.00 0.00 0.00 57 1016.2
20260506131929 8 165 0.0 0.0 0.00 0.00 0.00 59 1015.9
20260506130435 7 159 0.0 0.0 0.00 0.00 0.00 61 1015.8
20260506124925 8 165 0.0 0.0 0.00 0.00 0.00 59 1015.7
20260506121927 8 167 0.0 0.0 0.00 0.00 0.00 58 1015.6
20260506120436 8 360 0.0 0.0 0.00 0.00 0.00 58 1015.4
20260506114923 8 360 0.0 0.0 0.00 0.00 0.00 58 1015.3
20260506113432 8 167 0.0 0.0 0.00 0.00 0.00 59 1015.3
20260506111935 8 360 0.0 0.0 0.00 0.00 0.00 59 1015.1
20260506110429 8 167 0.0 0.0 0.00 0.00 0.00 61 1015.1
20260506103424 8 163 0.0 0.0 0.00 0.00 0.00 60 1015.1
20260506101936 8 360 0.0 0.0 0.00 0.00 0.00 59 1014.9
20260506100423 8 163 0.0 0.0 0.00 0.00 0.00 59 1014.8